UAL402 KLAX-KDEN

Flight info

Callsign UAL402
Flight time 1h 41m
Altitude 37000
Route ORCKA5 LAS J146 DICEE BUMMP SSKII4
Aircraft B38M/M-SDE1FGHILORVWXY/HB1

Departure

Time 2026-05-06 23:18
Airport Los Angeles International Airport (KLAX)

Arrival

Time 2026-05-07 00:59
Airport Denver International Airport (KDEN)
Time Latitude Longitude Altitude Speed Heading
2026-05-06 22:43 33.94628 -118.40497 128 ft 0 kts 105°
2026-05-06 22:58 33.94629 -118.40499 123 ft 2 kts 105°
2026-05-06 22:58 33.94631 -118.40519 127 ft 2 kts 84°
2026-05-06 22:59 33.94626 -118.40538 125 ft 2 kts 54°
2026-05-06 22:59 33.94614 -118.40551 123 ft 2 kts 26°
2026-05-06 22:59 33.94598 -118.40557 124 ft 2 kts
2026-05-06 22:59 33.94593 -118.40558 123 ft 0 kts 356°
2026-05-06 23:06 33.94602 -118.40559 134 ft 3 kts 353°
2026-05-06 23:06 33.94639 -118.40564 126 ft 9 kts 353°
2026-05-06 23:06 33.94717 -118.40576 125 ft 11 kts 352°
2026-05-06 23:07 33.94781 -118.40596 126 ft 6 kts 308°
2026-05-06 23:07 33.94782 -118.40625 125 ft 3 kts 257°
2026-05-06 23:07 33.94775 -118.40680 128 ft 11 kts 262°
2026-05-06 23:07 33.94762 -118.40803 124 ft 16 kts 263°
2026-05-06 23:08 33.94749 -118.40935 128 ft 16 kts 263°
2026-05-06 23:08 33.94735 -118.41068 128 ft 17 kts 263°
2026-05-06 23:08 33.94711 -118.41206 128 ft 16 kts 251°
2026-05-06 23:08 33.94632 -118.41276 127 ft 16 kts 174°
2026-05-06 23:09 33.94514 -118.41259 128 ft 18 kts 172°
2026-05-06 23:09 33.94384 -118.41237 126 ft 19 kts 173°
2026-05-06 23:09 33.94271 -118.41222 126 ft 17 kts 174°
2026-05-06 23:09 33.94148 -118.41204 127 ft 19 kts 173°
2026-05-06 23:10 33.94028 -118.41187 127 ft 16 kts 173°
2026-05-06 23:10 33.93916 -118.41170 125 ft 16 kts 173°
2026-05-06 23:10 33.93805 -118.41155 126 ft 15 kts 170°
2026-05-06 23:10 33.93770 -118.41054 128 ft 15 kts 83°
2026-05-06 23:11 33.93784 -118.40918 127 ft 17 kts 83°
2026-05-06 23:11 33.93799 -118.40778 126 ft 18 kts 83°
2026-05-06 23:11 33.93814 -118.40623 128 ft 19 kts 83°
2026-05-06 23:11 33.93829 -118.40482 127 ft 17 kts 83°
2026-05-06 23:12 33.93844 -118.40332 128 ft 17 kts 83°
2026-05-06 23:12 33.93858 -118.40198 128 ft 17 kts 83°
2026-05-06 23:12 33.93873 -118.40051 128 ft 19 kts 83°
2026-05-06 23:12 33.93889 -118.39892 128 ft 18 kts 83°
2026-05-06 23:13 33.93904 -118.39745 128 ft 18 kts 83°
2026-05-06 23:13 33.93920 -118.39587 128 ft 20 kts 83°
2026-05-06 23:13 33.93938 -118.39417 127 ft 18 kts 83°
2026-05-06 23:13 33.93951 -118.39288 128 ft 16 kts 83°
2026-05-06 23:14 33.93965 -118.39149 124 ft 18 kts 83°
2026-05-06 23:14 33.93981 -118.38995 128 ft 19 kts 83°
2026-05-06 23:14 33.93998 -118.38831 123 ft 21 kts 83°
2026-05-06 23:14 33.94012 -118.38695 123 ft 16 kts 83°
2026-05-06 23:15 33.94026 -118.38553 128 ft 18 kts 83°
2026-05-06 23:15 33.94041 -118.38399 123 ft 17 kts 83°
2026-05-06 23:15 33.94057 -118.38247 125 ft 19 kts 83°
2026-05-06 23:15 33.94073 -118.38094 128 ft 18 kts 83°
2026-05-06 23:16 33.94039 -118.38002 124 ft 9 kts 171°
2026-05-06 23:16 33.93987 -118.38037 126 ft 10 kts 250°
2026-05-06 23:16 33.93979 -118.38093 128 ft 0 kts 262°
2026-05-06 23:17 33.93977 -118.38111 128 ft 16 kts 263°
2026-05-06 23:17 33.93930 -118.38561 128 ft 96 kts 263°
2026-05-06 23:18 33.93817 -118.39649 231 ft 156 kts 263°
2026-05-06 23:18 33.93695 -118.41052 854 ft 181 kts 265°
2026-05-06 23:18 33.93580 -118.42622 1858 ft 195 kts 265°
2026-05-06 23:18 33.93400 -118.44389 2519 ft 235 kts 263°
2026-05-06 23:19 33.93102 -118.46550 2918 ft 278 kts 255°
2026-05-06 23:19 33.92414 -118.48798 3893 ft 305 kts 249°
2026-05-06 23:19 33.91547 -118.51360 3952 ft 350 kts 249°
2026-05-06 23:19 33.90646 -118.53991 4141 ft 327 kts 249°
2026-05-06 23:20 33.89815 -118.56412 4491 ft 299 kts 249°
2026-05-06 23:20 33.88784 -118.58417 4778 ft 270 kts 223°
2026-05-06 23:20 33.87190 -118.59462 4940 ft 262 kts 195°
2026-05-06 23:20 33.85351 -118.59665 5439 ft 271 kts 175°
2026-05-06 23:21 33.83544 -118.59132 6571 ft 263 kts 152°
2026-05-06 23:21 33.82097 -118.57862 7646 ft 257 kts 132°
2026-05-06 23:21 33.80625 -118.56525 8351 ft 279 kts 152°
2026-05-06 23:21 33.78660 -118.56013 8978 ft 302 kts 179°
2026-05-06 23:22 33.76617 -118.56609 9976 ft 308 kts 205°
2026-05-06 23:22 33.74834 -118.58116 10616 ft 323 kts 225°
2026-05-06 23:22 33.73568 -118.60402 11095 ft 339 kts 247°
2026-05-06 23:22 33.72391 -118.62938 11506 ft 359 kts 231°
2026-05-06 23:23 33.70491 -118.64959 12029 ft 372 kts 210°
2026-05-06 23:23 33.68041 -118.66010 12593 ft 379 kts 185°
2026-05-06 23:23 33.65448 -118.65835 12823 ft 372 kts 161°
2026-05-06 23:23 33.63190 -118.64433 12968 ft 365 kts 136°
2026-05-06 23:24 33.61658 -118.62081 13013 ft 356 kts 111°
2026-05-06 23:24 33.61043 -118.59243 13023 ft 351 kts 91°
2026-05-06 23:24 33.61247 -118.56357 13012 ft 347 kts 72°
2026-05-06 23:24 33.62290 -118.53770 13091 ft 347 kts 51°
2026-05-06 23:25 33.64096 -118.51883 13831 ft 348 kts 31°
2026-05-06 23:25 33.66378 -118.50884 14485 ft 354 kts 12°
2026-05-06 23:25 33.68799 -118.50302 15179 ft 357 kts 14°
2026-05-06 23:25 33.71234 -118.49668 15861 ft 359 kts 14°
2026-05-06 23:26 33.73685 -118.49018 16530 ft 363 kts 14°
2026-05-06 23:26 33.76111 -118.48372 17147 ft 366 kts 14°
2026-05-06 23:26 33.78608 -118.47703 17791 ft 369 kts 14°
2026-05-06 23:26 33.81126 -118.47030 18435 ft 372 kts 14°
2026-05-06 23:27 33.83670 -118.46348 18830 ft 378 kts 14°
2026-05-06 23:27 33.86231 -118.45665 18965 ft 376 kts 14°
2026-05-06 23:27 33.88754 -118.44995 19060 ft 376 kts 14°
2026-05-06 23:27 33.91244 -118.44084 19053 ft 374 kts 26°
2026-05-06 23:28 33.93368 -118.42315 19085 ft 373 kts 44°
2026-05-06 23:28 33.95022 -118.39897 19093 ft 375 kts 52°
2026-05-06 23:28 33.96558 -118.37350 19083 ft 376 kts 53°
2026-05-06 23:28 33.98068 -118.34776 19089 ft 377 kts 53°
2026-05-06 23:29 33.99564 -118.32184 19082 ft 377 kts 54°
2026-05-06 23:29 34.01057 -118.29574 19173 ft 380 kts 54°
2026-05-06 23:29 34.02551 -118.26951 19769 ft 380 kts 54°
2026-05-06 23:29 34.04049 -118.24310 20298 ft 384 kts 54°
2026-05-06 23:30 34.05563 -118.21639 20796 ft 387 kts 54°
2026-05-06 23:30 34.07083 -118.18953 21353 ft 390 kts 54°
2026-05-06 23:30 34.08617 -118.16240 21855 ft 393 kts 54°
2026-05-06 23:30 34.10163 -118.13507 22372 ft 396 kts 54°
2026-05-06 23:31 34.11719 -118.10751 22890 ft 399 kts 54°
2026-05-06 23:31 34.13288 -118.07970 23391 ft 402 kts 54°
2026-05-06 23:31 34.14865 -118.05173 23885 ft 404 kts 54°
2026-05-06 23:31 34.16444 -118.02369 24392 ft 404 kts 54°
2026-05-06 23:32 34.18030 -117.99554 24771 ft 407 kts 54°
2026-05-06 23:32 34.19621 -117.96723 25151 ft 409 kts 54°
2026-05-06 23:32 34.21224 -117.93873 25535 ft 411 kts 54°
2026-05-06 23:32 34.22827 -117.91018 25995 ft 411 kts 54°
2026-05-06 23:33 34.24440 -117.88143 26333 ft 415 kts 54°
2026-05-06 23:33 34.26061 -117.85252 26734 ft 417 kts 54°
2026-05-06 23:33 34.27693 -117.82338 27098 ft 419 kts 54°
2026-05-06 23:33 34.29331 -117.79414 27502 ft 421 kts 54°
2026-05-06 23:34 34.30979 -117.76468 27816 ft 424 kts 54°
2026-05-06 23:34 34.32636 -117.73506 28188 ft 426 kts 54°
2026-05-06 23:34 34.34298 -117.70526 28568 ft 428 kts 54°
2026-05-06 23:34 34.36040 -117.67597 28911 ft 430 kts 52°
2026-05-06 23:35 34.37803 -117.64667 29286 ft 432 kts 53°
2026-05-06 23:35 34.39569 -117.61714 29652 ft 434 kts 53°
2026-05-06 23:35 34.41319 -117.58780 29988 ft 436 kts 53°
2026-05-06 23:35 34.43094 -117.55803 30397 ft 436 kts 53°
2026-05-06 23:36 34.44864 -117.52832 30838 ft 434 kts 53°
2026-05-06 23:36 34.46620 -117.49879 31384 ft 430 kts 53°
2026-05-06 23:36 34.48344 -117.46979 32235 ft 418 kts 53°
2026-05-06 23:36 34.50020 -117.44157 33116 ft 406 kts 52°
2026-05-06 23:37 34.51650 -117.41412 33910 ft 396 kts 52°
2026-05-06 23:37 34.53243 -117.38725 34468 ft 390 kts 52°
2026-05-06 23:37 34.54820 -117.36062 34863 ft 387 kts 52°
2026-05-06 23:37 34.56388 -117.33414 35154 ft 386 kts 52°
2026-05-06 23:38 34.57953 -117.30770 35413 ft 386 kts 52°
2026-05-06 23:38 34.59519 -117.28121 35670 ft 386 kts 52°
2026-05-06 23:38 34.61080 -117.25478 35914 ft 385 kts 52°
2026-05-06 23:38 34.62639 -117.22838 36148 ft 385 kts 52°
2026-05-06 23:39 34.64197 -117.20197 36366 ft 384 kts 52°
2026-05-06 23:39 34.65755 -117.17556 36521 ft 384 kts 52°
2026-05-06 23:39 34.67306 -117.14923 36794 ft 383 kts 52°
2026-05-06 23:39 34.68851 -117.12298 37003 ft 382 kts 52°
2026-05-06 23:40 34.70400 -117.09665 37016 ft 383 kts 52°
2026-05-06 23:40 34.73474 -117.04432 37014 ft 379 kts 52°
2026-05-06 23:41 34.76543 -116.99201 37011 ft 380 kts 53°
2026-05-06 23:41 34.79611 -116.93964 37022 ft 380 kts 53°
2026-05-06 23:42 34.82677 -116.88723 37011 ft 380 kts 52°
2026-05-06 23:42 34.85745 -116.83472 37031 ft 381 kts 52°
2026-05-06 23:43 34.88807 -116.78223 37025 ft 380 kts 52°
2026-05-06 23:43 34.91890 -116.72984 37021 ft 380 kts 48°
2026-05-06 23:44 34.95444 -116.68247 37017 ft 379 kts 46°
2026-05-06 23:44 34.98417 -116.64320 37010 ft 379 kts 46°
2026-05-06 23:45 35.01998 -116.59600 36998 ft 379 kts 46°
2026-05-06 23:45 35.05578 -116.54878 36989 ft 379 kts 46°
2026-05-06 23:46 35.09158 -116.50149 36968 ft 379 kts 46°
2026-05-06 23:46 35.12736 -116.45415 36960 ft 379 kts 46°
2026-05-06 23:47 35.16314 -116.40675 36991 ft 379 kts 46°
2026-05-06 23:47 35.19887 -116.35936 36981 ft 385 kts 46°
2026-05-06 23:48 35.23548 -116.31073 37001 ft 392 kts 46°
2026-05-06 23:48 35.27276 -116.26113 36971 ft 400 kts 46°
2026-05-06 23:49 35.31075 -116.21053 36979 ft 407 kts 46°
2026-05-06 23:49 35.34938 -116.15898 36969 ft 413 kts 46°
2026-05-06 23:50 35.38819 -116.10710 36980 ft 413 kts 46°
2026-05-06 23:50 35.44644 -116.02912 36990 ft 413 kts 46°
2026-05-06 23:51 35.48492 -115.97751 37004 ft 413 kts 46°
2026-05-06 23:51 35.52370 -115.92540 37008 ft 413 kts 46°
2026-05-06 23:52 35.56244 -115.87327 37024 ft 413 kts 46°
2026-05-06 23:52 35.60114 -115.82114 37016 ft 413 kts 46°
2026-05-06 23:53 35.63966 -115.76883 37014 ft 413 kts 47°
2026-05-06 23:53 35.67800 -115.71614 37030 ft 413 kts 47°
2026-05-06 23:54 35.71630 -115.66348 37035 ft 413 kts 47°
2026-05-06 23:54 35.75462 -115.61073 37033 ft 413 kts 46°
2026-05-06 23:55 35.79293 -115.55790 37037 ft 414 kts 46°
2026-05-06 23:55 35.83114 -115.50513 37022 ft 414 kts 46°
2026-05-06 23:56 35.86985 -115.45158 37044 ft 419 kts 46°
2026-05-06 23:56 35.90852 -115.39800 37044 ft 418 kts 47°
2026-05-06 23:57 35.94721 -115.34432 37044 ft 418 kts 47°
2026-05-06 23:57 35.98582 -115.29066 37045 ft 417 kts 47°
2026-05-06 23:58 36.02427 -115.23713 37006 ft 417 kts 47°
2026-05-06 23:58 36.06271 -115.18354 37009 ft 417 kts 47°
2026-05-06 23:59 36.07933 -115.15420 36985 ft 419 kts 62°
2026-05-06 23:59 36.09050 -115.12089 37022 ft 421 kts 64°
2026-05-06 23:59 36.11233 -115.05343 37010 ft 423 kts 65°
2026-05-07 00:00 36.13350 -114.98552 36958 ft 424 kts 66°
2026-05-07 00:00 36.15443 -114.91752 36940 ft 423 kts 66°
2026-05-07 00:01 36.17530 -114.84951 36929 ft 423 kts 66°
2026-05-07 00:01 36.19618 -114.78146 36925 ft 423 kts 66°
2026-05-07 00:02 36.21702 -114.71340 36913 ft 423 kts 66°
2026-05-07 00:02 36.23769 -114.64574 36902 ft 423 kts 66°
2026-05-07 00:03 36.25847 -114.57757 36894 ft 423 kts 66°
2026-05-07 00:03 36.26986 -114.54012 36897 ft 423 kts 66°
2026-05-07 00:04 36.29540 -114.45690 36894 ft 424 kts 65°
2026-05-07 00:04 36.33766 -114.31646 36896 ft 423 kts 65°
2026-05-07 00:05 36.37877 -114.17998 36903 ft 423 kts 66°
2026-05-07 00:05 36.41958 -114.04307 36919 ft 423 kts 66°
2026-05-07 00:06 36.46041 -113.90583 36932 ft 424 kts 67°
2026-05-07 00:06 36.50123 -113.76861 36939 ft 424 kts 66°
2026-05-07 00:07 36.54163 -113.63074 36964 ft 426 kts 66°
2026-05-07 00:07 36.58242 -113.49253 36975 ft 425 kts 66°
2026-05-07 00:08 36.62301 -113.35416 36983 ft 426 kts 67°
2026-05-07 00:08 36.66293 -113.21543 37002 ft 425 kts 66°
2026-05-07 00:09 36.70329 -113.07699 37050 ft 425 kts 66°
2026-05-07 00:09 36.74318 -112.93798 37055 ft 426 kts 66°
2026-05-07 00:10 36.78302 -112.79900 37034 ft 425 kts 66°
2026-05-07 00:10 36.82253 -112.65964 37001 ft 426 kts 66°
2026-05-07 00:11 36.86177 -112.52003 36972 ft 426 kts 66°
2026-05-07 00:11 36.90147 -112.38051 36969 ft 427 kts 67°
2026-05-07 00:12 36.94039 -112.24064 36979 ft 427 kts 66°
2026-05-07 00:12 36.97895 -112.10141 36973 ft 428 kts 68°
2026-05-07 00:13 37.01789 -111.96108 36944 ft 428 kts 67°
2026-05-07 00:13 37.05720 -111.81952 36919 ft 427 kts 66°
2026-05-07 00:14 37.09585 -111.67954 36908 ft 428 kts 65°
2026-05-07 00:14 37.13443 -111.53823 36977 ft 429 kts 66°
2026-05-07 00:15 37.17262 -111.39659 36954 ft 429 kts 66°
2026-05-07 00:15 37.21098 -111.25482 36928 ft 429 kts 66°
2026-05-07 00:16 37.23490 -111.18603 36904 ft 421 kts 55°
2026-05-07 00:16 37.25999 -111.12043 36960 ft 427 kts 65°
2026-05-07 00:16 37.28766 -111.05577 36950 ft 417 kts 51°
2026-05-07 00:16 37.31256 -110.98928 36950 ft 429 kts 70°
2026-05-07 00:17 37.33502 -110.92103 36904 ft 416 kts 48°
2026-05-07 00:17 37.37022 -110.86330 36903 ft 424 kts 60°
2026-05-07 00:17 37.41351 -110.72726 36977 ft 413 kts 44°
2026-05-07 00:18 37.44536 -110.66646 36921 ft 428 kts 68°
2026-05-07 00:18 37.46118 -110.59382 36935 ft 427 kts 60°
2026-05-07 00:18 37.51728 -110.46613 37043 ft 431 kts 71°
2026-05-07 00:19 37.54151 -110.39895 36979 ft 415 kts 47°
2026-05-07 00:19 37.57448 -110.33861 36937 ft 428 kts 65°
2026-05-07 00:19 37.62308 -110.20514 37032 ft 419 kts 47°
2026-05-07 00:20 37.64319 -110.16207 36988 ft 429 kts 66°
2026-05-07 00:20 37.65277 -110.12643 37030 ft 429 kts 62°
2026-05-07 00:20 37.69009 -110.02411 37042 ft 431 kts 60°
2026-05-07 00:21 37.74182 -109.88817 37053 ft 430 kts 59°
2026-05-07 00:21 37.79399 -109.75220 37096 ft 431 kts 60°
2026-05-07 00:22 37.84605 -109.61573 37103 ft 430 kts 60°
2026-05-07 00:22 37.89771 -109.47877 37099 ft 431 kts 60°
2026-05-07 00:23 37.94924 -109.34251 37092 ft 433 kts 60°
2026-05-07 00:23 38.00082 -109.20488 37087 ft 432 kts 59°
2026-05-07 00:24 38.05243 -109.06703 37098 ft 434 kts 59°
2026-05-07 00:24 38.10431 -108.92859 37072 ft 434 kts 58°
2026-05-07 00:25 38.15851 -108.79172 37068 ft 434 kts 58°
2026-05-07 00:25 38.21226 -108.65401 37078 ft 436 kts 59°
2026-05-07 00:26 38.26587 -108.51588 37070 ft 435 kts 58°
2026-05-07 00:26 38.31978 -108.37773 37078 ft 437 kts 58°
2026-05-07 00:27 38.37339 -108.23840 37076 ft 437 kts 59°
2026-05-07 00:27 38.42667 -108.09952 37136 ft 436 kts 59°
2026-05-07 00:28 38.47959 -107.96006 37174 ft 437 kts 60°
2026-05-07 00:28 38.53254 -107.82062 37174 ft 436 kts 59°
2026-05-07 00:29 38.55908 -107.75092 37048 ft 437 kts 60°
2026-05-07 00:29 38.58539 -107.68087 37034 ft 437 kts 58°
2026-05-07 00:30 38.69022 -107.40120 37049 ft 438 kts 60°
2026-05-07 00:30 38.74352 -107.26020 37056 ft 441 kts 59°
2026-05-07 00:31 38.79681 -107.11926 37045 ft 439 kts 59°
2026-05-07 00:31 38.84969 -106.97771 37059 ft 442 kts 59°
2026-05-07 00:32 38.89440 -106.85678 37072 ft 442 kts 59°
2026-05-07 00:32 38.91658 -106.79762 37068 ft 443 kts 59°
2026-05-07 00:33 38.94304 -106.72627 37078 ft 443 kts 59°
2026-05-07 00:33 38.96951 -106.65467 37071 ft 445 kts 59°
2026-05-07 00:34 38.98272 -106.61888 36601 ft 442 kts 59°
2026-05-07 00:34 38.99592 -106.58304 35770 ft 445 kts 59°
2026-05-07 00:34 39.00907 -106.54714 35237 ft 441 kts 59°
2026-05-07 00:34 39.02205 -106.51171 34740 ft 435 kts 59°
2026-05-07 00:35 39.03490 -106.47659 34158 ft 433 kts 59°
2026-05-07 00:35 39.04767 -106.44167 33476 ft 431 kts 59°
2026-05-07 00:35 39.06039 -106.40684 32900 ft 428 kts 58°
2026-05-07 00:35 39.07293 -106.37244 32390 ft 423 kts 58°
2026-05-07 00:36 39.08533 -106.33840 31931 ft 417 kts 58°
2026-05-07 00:36 39.09758 -106.30473 31417 ft 413 kts 58°
2026-05-07 00:36 39.10970 -106.27140 30886 ft 410 kts 58°
2026-05-07 00:36 39.12172 -106.23828 30387 ft 406 kts 58°
2026-05-07 00:37 39.13363 -106.20543 29778 ft 403 kts 58°
2026-05-07 00:37 39.14542 -106.17288 29222 ft 399 kts 58°
2026-05-07 00:37 39.15707 -106.14060 28612 ft 396 kts 58°
2026-05-07 00:37 39.16860 -106.10859 28135 ft 390 kts 58°
2026-05-07 00:38 39.18000 -106.07688 27700 ft 391 kts 58°
2026-05-07 00:38 39.19138 -106.04520 27127 ft 388 kts 58°
2026-05-07 00:38 39.20265 -106.01378 26606 ft 385 kts 58°
2026-05-07 00:38 39.21387 -105.98252 26107 ft 383 kts 59°
2026-05-07 00:39 39.22500 -105.95144 25578 ft 381 kts 59°
2026-05-07 00:39 39.23607 -105.92056 25038 ft 379 kts 59°
2026-05-07 00:39 39.24713 -105.88992 24632 ft 375 kts 59°
2026-05-07 00:39 39.25807 -105.85958 24271 ft 372 kts 59°
2026-05-07 00:40 39.26897 -105.82929 23907 ft 372 kts 59°
2026-05-07 00:40 39.27986 -105.79903 23525 ft 371 kts 59°
2026-05-07 00:40 39.29071 -105.76883 23078 ft 369 kts 59°
2026-05-07 00:40 39.30146 -105.73885 22716 ft 368 kts 59°
2026-05-07 00:41 39.31214 -105.70909 22324 ft 362 kts 59°
2026-05-07 00:41 39.32264 -105.67982 21978 ft 357 kts 59°
2026-05-07 00:41 39.33319 -105.65098 21575 ft 353 kts 58°
2026-05-07 00:41 39.34359 -105.62252 21311 ft 348 kts 59°
2026-05-07 00:42 39.35385 -105.59440 20926 ft 344 kts 59°
2026-05-07 00:42 39.36399 -105.56657 20604 ft 343 kts 59°
2026-05-07 00:42 39.37415 -105.53864 20262 ft 343 kts 59°
2026-05-07 00:42 39.38426 -105.51086 19902 ft 341 kts 59°
2026-05-07 00:43 39.39416 -105.48359 19593 ft 338 kts 59°
2026-05-07 00:43 39.40411 -105.45618 19237 ft 335 kts 59°
2026-05-07 00:43 39.41339 -105.42918 18860 ft 337 kts 66°
2026-05-07 00:43 39.41669 -105.39873 18464 ft 347 kts 84°
2026-05-07 00:44 39.41684 -105.36767 18058 ft 344 kts 83°
2026-05-07 00:44 39.41718 -105.33678 17619 ft 343 kts 83°
2026-05-07 00:44 39.41741 -105.30604 17223 ft 341 kts 84°
2026-05-07 00:44 39.41760 -105.27552 16865 ft 338 kts 84°
2026-05-07 00:45 39.41777 -105.24528 16494 ft 334 kts 85°
2026-05-07 00:45 39.41793 -105.21540 16172 ft 333 kts 85°
2026-05-07 00:45 39.41807 -105.18558 15821 ft 331 kts 85°
2026-05-07 00:45 39.41821 -105.15593 15477 ft 328 kts 85°
2026-05-07 00:46 39.41833 -105.12664 15157 ft 325 kts 85°
2026-05-07 00:46 39.41844 -105.09741 14785 ft 325 kts 86°
2026-05-07 00:46 39.41856 -105.06823 14476 ft 324 kts 86°
2026-05-07 00:46 39.41866 -105.03918 14138 ft 323 kts 86°
2026-05-07 00:47 39.41875 -105.01023 13772 ft 321 kts 86°
2026-05-07 00:47 39.41884 -104.98142 13383 ft 320 kts 87°
2026-05-07 00:47 39.41893 -104.95270 13052 ft 318 kts 87°
2026-05-07 00:47 39.42052 -104.92458 12775 ft 311 kts 80°
2026-05-07 00:48 39.42303 -104.89691 12454 ft 308 kts 80°
2026-05-07 00:48 39.42534 -104.86980 12149 ft 297 kts 81°
2026-05-07 00:48 39.42765 -104.84405 11968 ft 282 kts 79°
2026-05-07 00:48 39.42993 -104.81908 11678 ft 276 kts 80°
2026-05-07 00:49 39.43212 -104.79472 11352 ft 269 kts 80°
2026-05-07 00:49 39.43423 -104.77109 11080 ft 259 kts 79°
2026-05-07 00:49 39.43874 -104.74931 10825 ft 245 kts 63°
2026-05-07 00:49 39.44546 -104.72990 10618 ft 227 kts 53°
2026-05-07 00:50 39.45628 -104.71666 10355 ft 206 kts 26°
2026-05-07 00:50 39.46835 -104.70760 10148 ft 197 kts 25°
2026-05-07 00:50 39.48027 -104.69907 10016 ft 194 kts 22°
2026-05-07 00:50 39.49294 -104.69471 9960 ft 187 kts 360°
2026-05-07 00:51 39.50598 -104.69352 10016 ft 189 kts 359°
2026-05-07 00:51 39.51908 -104.69260 10022 ft 187 kts 358°
2026-05-07 00:51 39.53210 -104.69196 9998 ft 188 kts 358°
2026-05-07 00:51 39.54511 -104.69148 10027 ft 185 kts 357°
2026-05-07 00:52 39.55786 -104.69112 10005 ft 182 kts 357°
2026-05-07 00:52 39.57050 -104.69083 9979 ft 182 kts 356°
2026-05-07 00:52 39.58314 -104.69060 9984 ft 182 kts 356°
2026-05-07 00:52 39.59582 -104.69039 9896 ft 182 kts 356°
2026-05-07 00:53 39.60830 -104.69021 9721 ft 182 kts 356°
2026-05-07 00:53 39.62095 -104.69004 9537 ft 182 kts 356°
2026-05-07 00:53 39.63362 -104.68988 9375 ft 183 kts 356°
2026-05-07 00:53 39.64633 -104.68971 9211 ft 183 kts 357°
2026-05-07 00:54 39.65908 -104.68956 9052 ft 184 kts 356°
2026-05-07 00:54 39.67170 -104.68941 8958 ft 179 kts 356°
2026-05-07 00:54 39.68427 -104.68926 8860 ft 184 kts 357°
2026-05-07 00:54 39.69713 -104.68913 8642 ft 185 kts 357°
2026-05-07 00:55 39.70996 -104.68899 8431 ft 185 kts 357°
2026-05-07 00:55 39.72288 -104.68884 8222 ft 186 kts 358°
2026-05-07 00:55 39.73553 -104.68868 8001 ft 177 kts 358°
2026-05-07 00:55 39.74729 -104.68854 7816 ft 163 kts 357°
2026-05-07 00:56 39.75845 -104.68841 7565 ft 158 kts 356°
2026-05-07 00:56 39.76950 -104.68829 7348 ft 159 kts 356°
2026-05-07 00:56 39.78064 -104.68817 7157 ft 161 kts 358°
2026-05-07 00:56 39.79187 -104.68804 6933 ft 162 kts 358°
2026-05-07 00:57 39.80319 -104.68787 6747 ft 164 kts 359°
2026-05-07 00:57 39.81467 -104.68761 6506 ft 165 kts 359°
2026-05-07 00:57 39.82612 -104.68754 6289 ft 165 kts 359°
2026-05-07 00:57 39.83764 -104.68761 5971 ft 166 kts
2026-05-07 00:58 39.84903 -104.68744 5736 ft 162 kts
2026-05-07 00:58 39.86026 -104.68726 5528 ft 161 kts
2026-05-07 00:58 39.87120 -104.68712 5385 ft 144 kts
2026-05-07 00:58 39.87881 -104.68705 5385 ft 72 kts
2026-05-07 00:59 39.88418 -104.68699 5367 ft 21 kts 350°
2026-05-07 00:59 39.88467 -104.68812 5370 ft 16 kts 271°
2026-05-07 00:59 39.88467 -104.68919 5370 ft 6 kts 270°
2026-05-07 01:00 39.88467 -104.68987 5366 ft 9 kts 271°
2026-05-07 01:00 39.88469 -104.69085 5365 ft 13 kts 271°
2026-05-07 01:00 39.88470 -104.69229 5365 ft 19 kts 270°
2026-05-07 01:00 39.88471 -104.69447 5359 ft 28 kts 270°
2026-05-07 01:01 39.88469 -104.69633 5388 ft 19 kts 270°
2026-05-07 01:01 39.88470 -104.69669 5392 ft 0 kts 272°
2026-05-07 01:02 39.88469 -104.69671 5392 ft 1 kts 263°
2026-05-07 01:02 39.88462 -104.69672 5392 ft 1 kts 159°
2026-05-07 01:02 39.88460 -104.69646 5391 ft 8 kts 86°
2026-05-07 01:03 39.88470 -104.69551 5389 ft 8 kts 88°
2026-05-07 01:03 39.88470 -104.69418 5358 ft 17 kts 90°
2026-05-07 01:03 39.88470 -104.69279 5364 ft 14 kts 90°
2026-05-07 01:03 39.88469 -104.69166 5378 ft 12 kts 91°
2026-05-07 01:04 39.88468 -104.69057 5365 ft 12 kts 91°
2026-05-07 01:04 39.88467 -104.68948 5361 ft 11 kts 91°
2026-05-07 01:04 39.88466 -104.68860 5370 ft 10 kts 90°
2026-05-07 01:04 39.88466 -104.68843 5370 ft 0 kts 89°
2026-05-07 01:07 39.88466 -104.68826 5370 ft 5 kts 89°
2026-05-07 01:07 39.88467 -104.68725 5369 ft 17 kts 89°
2026-05-07 01:07 39.88539 -104.68615 5365 ft 12 kts 31°
2026-05-07 01:07 39.88596 -104.68549 5367 ft 11 kts 79°
2026-05-07 01:08 39.88547 -104.68487 5366 ft 11 kts 171°
2026-05-07 01:08 39.88467 -104.68483 5367 ft 12 kts 180°
2026-05-07 01:08 39.88386 -104.68485 5367 ft 11 kts 181°
2026-05-07 01:08 39.88315 -104.68486 5373 ft 9 kts 180°
2026-05-07 01:09 39.88252 -104.68486 5374 ft 9 kts 180°
2026-05-07 01:09 39.88177 -104.68486 5377 ft 14 kts 180°
2026-05-07 01:09 39.88057 -104.68487 5377 ft 18 kts 180°
2026-05-07 01:09 39.87938 -104.68489 5383 ft 16 kts 181°
2026-05-07 01:10 39.87832 -104.68491 5384 ft 15 kts 181°
2026-05-07 01:10 39.87719 -104.68493 5384 ft 17 kts 181°
2026-05-07 01:10 39.87600 -104.68494 5384 ft 17 kts 180°
2026-05-07 01:10 39.87479 -104.68495 5384 ft 18 kts 180°
2026-05-07 01:11 39.87358 -104.68496 5382 ft 15 kts 180°
2026-05-07 01:11 39.87248 -104.68498 5382 ft 16 kts 181°
2026-05-07 01:11 39.87142 -104.68499 5385 ft 15 kts 180°
2026-05-07 01:11 39.87040 -104.68500 5386 ft 15 kts 180°
2026-05-07 01:12 39.86935 -104.68500 5387 ft 15 kts 180°
2026-05-07 01:12 39.86838 -104.68502 5388 ft 13 kts 181°
2026-05-07 01:12 39.86761 -104.68502 5392 ft 10 kts 180°
2026-05-07 01:12 39.86694 -104.68504 5387 ft 10 kts 181°
2026-05-07 01:13 39.86594 -104.68505 5395 ft 18 kts 180°
2026-05-07 01:13 39.86479 -104.68507 5395 ft 15 kts 181°
2026-05-07 01:13 39.86381 -104.68509 5396 ft 14 kts 180°
2026-05-07 01:13 39.86281 -104.68509 5401 ft 16 kts 179°
2026-05-07 01:14 39.86157 -104.68509 5391 ft 20 kts 181°
2026-05-07 01:14 39.86050 -104.68510 5387 ft 13 kts 180°
2026-05-07 01:14 39.85955 -104.68511 5388 ft 16 kts 181°
2026-05-07 01:14 39.85831 -104.68513 5383 ft 20 kts 181°
2026-05-07 01:15 39.85709 -104.68500 5378 ft 14 kts 149°
2026-05-07 01:15 39.85687 -104.68413 5382 ft 9 kts 90°
2026-05-07 01:15 39.85687 -104.68339 5384 ft 8 kts 90°
2026-05-07 01:15 39.85686 -104.68232 5384 ft 16 kts 91°
2026-05-07 01:16 39.85669 -104.68095 5384 ft 13 kts 90°
2026-05-07 01:16 39.85669 -104.67970 5383 ft 15 kts 91°
2026-05-07 01:16 39.85668 -104.67830 5383 ft 16 kts 91°
2026-05-07 01:16 39.85666 -104.67678 5382 ft 17 kts 91°
2026-05-07 01:17 39.85665 -104.67516 5382 ft 18 kts 89°
2026-05-07 01:17 39.85665 -104.67372 5384 ft 14 kts 92°
2026-05-07 01:17 39.85644 -104.67312 5383 ft 0 kts 127°
2026-05-07 01:17 39.85645 -104.67306 5383 ft 2 kts 72°
2026-05-07 01:18 39.85681 -104.67289 5383 ft 11 kts
2026-05-07 01:18 39.85763 -104.67285 5382 ft 9 kts
2026-05-07 01:18 39.85815 -104.67284 5383 ft 0 kts
2026-05-07 01:19 39.85816 -104.67284 5383 ft 0 kts